Regional Weather Roundup
Issued by NWS

Home | Current Version | Previous Version | Text Only | Print | Product List | Glossary Off
Versions: 1 2 3 4 5 6 7 8 9 10 11 12 13 14 15 16 17 18 19 20 21 22 23 24 25 26 27 28 29 30 31 32 33 34 35 36 37 38 39 40 41 42 43 44 45 46 47 48 49 50

000
ASUS43 KLSX 040110
RWRMO

WEATHER SUMMARY FOR MISSOURI
NATIONAL WEATHER SERVICE SPRINGFIELD MO
800 PM CDT THU SEP 03 2015

NOTE: "FAIR" INDICATES FEW OR NO CLOUDS BELOW 12,000 FEET WITH NO
       SIGNIFICANT WEATHER AND/OR OBSTRUCTIONS TO VISIBILITY.
       CURRENT SKY AND/OR WEATHER CONDITIONS ARE NOT AVAILABLE FOR
       CHILLICOTHE AND FARMINGTON.

MOZ001>031-035>038-043-044-053-054-040200-
...NORTHERN AND WESTERN MISSOURI...

CITY           SKY/WX    TMP DP  RH WIND       PRES   REMARKS
KANSAS CTY INT PTCLDY    78  67  68 S8        29.88S
KANSAS C DTWN  CLEAR     85  67  54 S8        29.87R
LEE`S SUMMIT   CLEAR     83  66  56 S6        29.90S
ST JOSEPH      CLEAR     81  69  67 S9        29.86S
CHILLICOTHE      N/A     83  69  62 S3        29.89S
KIRKSVILLE     CLEAR     79  69  71 S6        29.91S

$$
MOZ066>068-077>081-088>096-101>105-040200-
...SOUTHWEST MISSOURI...

CITY           SKY/WX    TMP DP  RH WIND       PRES   REMARKS
SPRINGFIELD    CLEAR     81  68  64 SE5       29.93F
JOPLIN         CLEAR     81  69  67 S3        29.91F

$$
MOZ032>034-039>042-045>050-055>058-069>072-040200-
...CENTRAL MISSOURI...

CITY           SKY/WX    TMP DP  RH WIND       PRES   REMARKS
COLUMBIA       PTCLDY    82  72  71 SE3       29.92S
JEFFERSON CITY PTCLDY    83  69  62 CALM      29.90S
ROLLA          PTCLDY    78  67  68 S5        29.94S
SEDALIA        CLEAR     83  67  58 S5        29.92S
WHITEMAN AFB   PTCLDY    81  69  65 S5        29.89F
WARRENSBURG    CLEAR     81  66  61 CALM      29.89S
OSAGE BEACH    MOCLDY    82  66  57 S5        29.94R

$$
MOZ051-052-059>065-040200-
...EAST CENTRAL MISSOURI...

CITY           SKY/WX    TMP DP  RH WIND       PRES   REMARKS
ST LOUIS INTL  PTCLDY    88  65  46 SW5       29.92S HX  90
SPIRIT OF STL  CLEAR     79  73  82 CALM      29.90S
ST CHARLES     CLEAR     83  73  72 CALM      29.90S

$$
MOZ072>076-082>087-097>100-106>115-040200-
...SOUTH CENTRAL AND SOUTHEAST MISSOURI...

CITY           SKY/WX    TMP DP  RH WIND       PRES   REMARKS
CAPE GIRARDEAU CLEAR     79  71  76 S5        29.92S
FARMINGTON     CLEAR     81  72  74 CALM      29.97S
POPLAR BLUFF   CLEAR     77  73  87 CALM      29.91S
WEST PLAINS    CLEAR     78  70  76 CALM      29.97S

$$



USA.gov is the U.S. government's official web portal to all federal, state and local government web resources and services.